Rickenbacker, OH

6:25 PM EDT on April 21, 2018 (GMT -0400)
Rickenbacker International

Weather History for KLCK - August, 2013

Change the Weather History Date:

Tuesday, August 13, 2013

  Actual Average Record
Temperature  
Mean Temperature 70 °F -  
Max Temperature 78 °F 82 °F 98 °F (2005)
Min Temperature 61 °F 62 °F 35 °F (2001)
Cooling Degree Days 5    
Growing Degree Days 20 (Base 50)    
Moisture  
Dew Point 58 °F    
Average Humidity 66    
Maximum Humidity 88    
Minimum Humidity 37    
Precipitation  
Precipitation 0.00 in - - ()
Sea Level Pressure  
Sea Level Pressure 29.92 in    
Wind  
Wind Speed 7 mph (NW)    
Max Wind Speed 17 mph    
Max Gust Speed 22 mph    
Visibility 8 miles    
Events      
Averages and records for this station are not official NWS values.
T = Trace of Precipitation, MM = Missing Value Source: NWS Daily Summary

Daily Weather History Graph

Daily Weather History Graph

Search for Another Location

Airport or City:

Astronomy

Aug. 13, 2013 Rise Set
Actual Time 6:42 AM EDT 8:30 PM EDT
Civil Twilight 6:12 AM EDT 8:59 PM EDT
Nautical Twilight 5:37 AM EDT 9:34 PM EDT
Astronomical Twilight 4:59 AM EDT 10:12 PM EDT
Moon 1:34 PM EDT (8/13) No Moon Set
Length of Visible Light 14h 46m
Length of Day
13h 48m
Waxing Crescent, 41% of the Moon is Illuminated
Aug 13
Waxing Crescent
Aug 14
First Quarter
Aug 20
Full
Aug 28
Last Quarter
Sep 5
New

Hourly Weather History & Observations

Time (EDT) Temp. Dew Point Humidity Pressure Visibility Wind Dir Wind Speed Gust Speed Precip Events Conditions
12:15 AM 71.2 °F 66.6 °F 85% 29.88 in 4.0 mi WNW 8.1 mph - N/A   Haze
12:55 AM 70.5 °F 66.0 °F 86% 29.87 in 2.0 mi South 4.6 mph - N/A   Mostly Cloudy
1:15 AM 70.2 °F 66.0 °F 87% 29.86 in 1.5 mi Calm Calm - N/A   Mostly Cloudy
1:35 AM 70.2 °F 66.2 °F 87% 29.86 in 2.5 mi Calm Calm - N/A   Overcast
1:55 AM 70.2 °F 66.2 °F 87% 29.86 in 1.8 mi Calm Calm - N/A   Overcast
2:15 AM 70.0 °F 66.0 °F 87% 29.85 in 2.0 mi WSW 3.5 mph - N/A   Mostly Cloudy
2:35 AM 69.3 °F 65.5 °F 88% 29.84 in 2.5 mi WSW 5.8 mph - N/A   Scattered Clouds
2:55 AM 68.7 °F 64.8 °F 87% 29.84 in 4.0 mi WSW 6.9 mph - N/A   Clear
3:15 AM 68.2 °F 64.2 °F 87% 29.84 in 3.0 mi SW 3.5 mph - N/A   Clear
3:35 AM 68.0 °F 64.0 °F 87% 29.84 in 3.0 mi SW 4.6 mph - N/A   Clear
3:55 AM 67.6 °F 63.9 °F 88% 29.84 in 2.5 mi WSW 3.5 mph - N/A   Clear
4:15 AM 67.1 °F 63.5 °F 88% 29.84 in 2.5 mi SSW 3.5 mph - N/A   Clear
4:35 AM 66.7 °F 63.1 °F 88% 29.84 in 2.0 mi Calm Calm - N/A   Clear
4:55 AM 66.6 °F 63.0 °F 88% 29.85 in 3.0 mi WSW 4.6 mph - N/A   Scattered Clouds
5:15 AM 66.4 °F 62.8 °F 88% 29.85 in 3.0 mi West 3.5 mph - N/A   Scattered Clouds
5:35 AM 66.7 °F 63.1 °F 88% 29.85 in 4.0 mi WNW 4.6 mph - N/A   Mostly Cloudy
5:55 AM 67.1 °F 63.1 °F 87% 29.85 in 7.0 mi WNW 5.8 mph - N/A   Scattered Clouds
6:15 AM 67.1 °F 62.8 °F 86% 29.85 in 7.0 mi WNW 4.6 mph - N/A   Clear
6:35 AM 67.1 °F 62.6 °F 85% 29.85 in 5.0 mi WNW 5.8 mph - N/A   Haze
6:55 AM 67.1 °F 62.4 °F 85% 29.86 in 5.0 mi NW 4.6 mph - N/A   Clear
7:15 AM 67.1 °F 62.6 °F 85% 29.86 in 5.0 mi NW 4.6 mph - N/A   Haze
7:35 AM 67.3 °F 62.6 °F 85% 29.86 in 5.0 mi NW 3.5 mph - N/A   Haze
7:55 AM 67.5 °F 62.6 °F 84% 29.87 in 5.0 mi NW 5.8 mph - N/A   Haze
8:15 AM 67.6 °F 62.4 °F 83% 29.88 in 7.0 mi NW 4.6 mph - N/A   Overcast
8:35 AM 68.2 °F 62.4 °F 82% 29.88 in 10.0 mi NW 6.9 mph - N/A   Overcast
8:55 AM 68.9 °F 62.2 °F 79% 29.88 in 10.0 mi NNW 8.1 mph - N/A   Overcast
9:15 AM 69.1 °F 62.2 °F 79% 29.89 in 10.0 mi NNW 8.1 mph - N/A   Overcast
9:35 AM 69.4 °F 62.2 °F 78% 29.90 in 10.0 mi NNW 8.1 mph - N/A   Overcast
9:55 AM 70.0 °F 62.1 °F 76% 29.90 in 10.0 mi North 8.1 mph - N/A   Overcast
10:15 AM 70.0 °F 61.7 °F 75% 29.92 in 10.0 mi NNW 6.9 mph - N/A   Overcast
10:35 AM 70.7 °F 61.2 °F 72% 29.93 in 10.0 mi NW 6.9 mph - N/A   Overcast
10:55 AM 71.4 °F 61.3 °F 70% 29.93 in 10.0 mi NNW 6.9 mph - N/A   Overcast
11:15 AM 72.3 °F 61.5 °F 69% 29.93 in 10.0 mi NNW 8.1 mph - N/A   Overcast
11:35 AM 73.2 °F 61.9 °F 68% 29.93 in 10.0 mi NNW 13.8 mph - N/A   Mostly Cloudy
11:55 AM 72.3 °F 60.8 °F 67% 29.94 in 10.0 mi NW 11.5 mph - N/A   Overcast
12:15 PM 73.4 °F 60.4 °F 64% 29.94 in 10.0 mi NW 11.5 mph - N/A   Mostly Cloudy
12:35 PM 74.3 °F 59.5 °F 60% 29.94 in 10.0 mi NW 11.5 mph - N/A   Mostly Cloudy
12:55 PM 74.7 °F 58.5 °F 57% 29.94 in 10.0 mi WNW 12.7 mph 17.3 mph N/A   Mostly Cloudy
1:15 PM 74.8 °F 58.3 °F 56% 29.93 in 10.0 mi NW 9.2 mph - N/A   Mostly Cloudy
1:35 PM 76.6 °F 58.3 °F 53% 29.93 in 10.0 mi NW 5.8 mph - N/A   Mostly Cloudy
1:55 PM 77.0 °F 57.4 °F 51% 29.93 in 10.0 mi WNW 8.1 mph - N/A   Mostly Cloudy
2:15 PM 77.2 °F 57.6 °F 51% 29.93 in 10.0 mi WNW 11.5 mph 17.3 mph N/A   Mostly Cloudy
2:35 PM 78.3 °F 57.9 °F 49% 29.93 in 10.0 mi NW 9.2 mph - N/A   Mostly Cloudy
2:55 PM 78.1 °F 57.4 °F 49% 29.93 in 10.0 mi NW 13.8 mph - N/A   Scattered Clouds
3:15 PM 78.3 °F 55.2 °F 45% 29.92 in 10.0 mi NW 12.7 mph 20.7 mph N/A   Clear
3:35 PM 78.4 °F 53.6 °F 42% 29.92 in 10.0 mi NW 13.8 mph 19.6 mph N/A   Clear
3:55 PM 77.9 °F 52.0 °F 40% 29.93 in 10.0 mi NW 10.4 mph 19.6 mph N/A   Clear
4:15 PM 77.4 °F 51.1 °F 40% 29.93 in 10.0 mi NNW 13.8 mph 18.4 mph N/A   Clear
4:35 PM 76.6 °F 48.7 °F 37% 29.93 in 10.0 mi NNW 13.8 mph 21.9 mph N/A   Clear
4:55 PM 75.9 °F 51.1 °F 42% 29.93 in 10.0 mi NW 15.0 mph 19.6 mph N/A   Clear
5:15 PM 75.6 °F 52.7 °F 45% 29.93 in 10.0 mi NNW 12.7 mph 17.3 mph N/A   Clear
5:35 PM 75.6 °F 52.7 °F 45% 29.93 in 10.0 mi NNW 12.7 mph 17.3 mph N/A   Scattered Clouds
5:55 PM 75.4 °F 52.7 °F 45% 29.93 in 10.0 mi NW 17.3 mph 21.9 mph N/A   Mostly Cloudy
6:15 PM 74.3 °F 52.3 °F 46% 29.94 in 10.0 mi NNW 13.8 mph 20.7 mph N/A   Scattered Clouds
6:35 PM 73.4 °F 52.5 °F 48% 29.95 in 10.0 mi NNW 15.0 mph 21.9 mph N/A   Scattered Clouds
6:55 PM 72.0 °F 51.3 °F 48% 29.95 in 10.0 mi North 12.7 mph 19.6 mph N/A   Clear
7:55 PM 70.3 °F 48.2 °F 45% 29.96 in 10.0 mi North 13.8 mph 18.4 mph N/A   Clear
8:15 PM 69.4 °F 46.8 °F 44% 29.97 in 10.0 mi North 15.0 mph 20.7 mph N/A   Clear
8:35 PM 68.4 °F 44.2 °F 42% 29.98 in 10.0 mi North 10.4 mph - N/A   Clear
8:55 PM 67.3 °F 45.1 °F 45% 29.99 in 10.0 mi North 11.5 mph 17.3 mph N/A   Clear
9:15 PM 66.6 °F 45.3 °F 46% 29.99 in 10.0 mi North 15.0 mph 18.4 mph N/A   Clear
9:35 PM 66.0 °F 45.3 °F 47% 30.01 in 10.0 mi North 9.2 mph - N/A   Clear
9:55 PM 65.3 °F 45.9 °F 49% 30.01 in 10.0 mi North 10.4 mph - N/A   Clear
10:15 PM 64.8 °F 46.6 °F 52% 30.02 in 10.0 mi North 10.4 mph - N/A   Clear
10:35 PM 64.2 °F 47.1 °F 54% 30.03 in 10.0 mi North 9.2 mph - N/A   Scattered Clouds
10:55 PM 63.1 °F 47.7 °F 57% 30.03 in 10.0 mi North 11.5 mph - N/A   Scattered Clouds
11:15 PM 62.8 °F 46.8 °F 56% 30.03 in 10.0 mi North 9.2 mph - N/A   Clear
11:35 PM 62.1 °F 46.6 °F 57% 30.03 in 10.0 mi North 6.9 mph - N/A   Clear
11:55 PM 61.3 °F 47.1 °F 60% 30.04 in 10.0 mi North 5.8 mph - N/A   Clear